Savanna, IA

10:05 AM CST on February 21, 2018 (GMT -0600)
Tri-Township

Weather History for KSFY - May, 2014

Change the Weather History Date:

Tuesday, May 13, 2014

  Actual Average (KCWI) Record (KCWI)
Temperature  
Mean Temperature 58 °F -  
Max Temperature 65 °F 71 °F 89 °F (1991)
Min Temperature 50 °F 47 °F 33 °F (1971)
Degree Days  
Heating Degree Days 8    
Growing Degree Days 8 (Base 50)    
Moisture  
Dew Point 47 °F    
Average Humidity 76    
Maximum Humidity 94    
Minimum Humidity 60    
Precipitation  
Precipitation 0.01 in - - ()
Sea Level Pressure  
Sea Level Pressure 30.02 in    
Wind  
Wind Speed 9 mph (West)    
Max Wind Speed 17 mph    
Max Gust Speed 23 mph    
Visibility 10 miles    
Events Rain    
Averages and records for this station are not official NWS values.
T = Trace of Precipitation, MM = Missing Value Source: NWS Daily Summary

Daily Weather History Graph

Daily Weather History Graph

Search for Another Location

Airport or City:

Trip Planner

Search our weather history database for the weather conditions in past years. The results will help you decide how hot, cold, wet, or windy it might be!

Date:

Astronomy

May. 13, 2014 Rise Set
Actual Time 5:41 AM CDT 8:12 PM CDT
Civil Twilight 5:10 AM CDT 8:44 PM CDT
Nautical Twilight 4:30 AM CDT 9:23 PM CDT
Astronomical Twilight 3:46 AM CDT 10:08 PM CDT
Moon 7:12 PM CDT (5/13) 5:00 AM CDT (5/13)
Length of Visible Light 15h 34m
Length of Day
14h 30m
Waxing Gibbous, 99% of the Moon is Illuminated
May 13
Waxing Gibbous
May 14
Full
May 21
Last Quarter
May 28
New
Jun 5
First Quarter

Hourly Weather History & Observations

Time (CDT) Temp. Dew Point Humidity Pressure Visibility Wind Dir Wind Speed Gust Speed Precip Events Conditions
12:15 AM 65.7 °F 63.0 °F 91% 29.79 in 10.0 mi Calm Calm - N/A   Clear
12:35 AM 65.7 °F 63.0 °F 91% 29.79 in 10.0 mi Calm Calm - N/A   Clear
12:55 AM 65.3 °F 62.8 °F 92% 29.81 in 10.0 mi SSW 5.8 mph - N/A   Scattered Clouds
1:15 AM 65.1 °F 62.8 °F 92% 29.82 in 10.0 mi SSE 6.9 mph - N/A   Overcast
1:35 AM 65.3 °F 63.3 °F 93% 29.83 in 10.0 mi South 9.2 mph - N/A   Overcast
1:55 AM 62.1 °F 59.2 °F 90% 29.85 in 10.0 mi West 10.4 mph - N/A   Overcast
2:15 AM 60.1 °F 57.0 °F 90% 29.86 in 10.0 mi West 13.8 mph 17.3 mph N/A   Overcast
2:35 AM 58.5 °F 55.6 °F 90% 29.88 in 5.0 mi West 10.4 mph 16.1 mph N/A Rain Light Rain
2:55 AM 57.0 °F 54.5 °F 91% 29.88 in 4.0 mi WNW 10.4 mph - N/A   Drizzle
3:15 AM 56.3 °F 54.5 °F 94% 29.88 in 4.0 mi West 6.9 mph - N/A Rain Rain
3:35 AM 55.4 °F 52.7 °F 91% 29.90 in 10.0 mi West 9.2 mph - N/A   Light Drizzle
3:55 AM 55.2 °F 52.0 °F 89% 29.91 in 10.0 mi West 10.4 mph - N/A   Drizzle
4:15 AM 54.5 °F 51.6 °F 90% 29.91 in 10.0 mi West 10.4 mph - N/A Rain Light Rain
4:35 AM 54.1 °F 51.1 °F 89% 29.91 in 10.0 mi West 8.1 mph - N/A Rain Rain
4:55 AM 54.0 °F 50.9 °F 89% 29.91 in 10.0 mi West 9.2 mph - N/A   Light Drizzle
5:15 AM 53.6 °F 50.2 °F 88% 29.91 in 10.0 mi West 9.2 mph - N/A   Overcast
5:35 AM 53.6 °F 50.2 °F 88% 29.91 in 10.0 mi West 11.5 mph - N/A   Overcast
5:55 AM 52.9 °F 49.6 °F 89% 29.92 in 10.0 mi West 11.5 mph - N/A   Overcast
6:15 AM 52.7 °F 49.5 °F 89% 29.92 in 7.0 mi West 11.5 mph - 0.01 in Rain Rain
6:35 AM 52.7 °F 49.8 °F 90% 29.93 in 10.0 mi West 6.9 mph - 0.01 in   Overcast
6:55 AM 53.1 °F 49.6 °F 88% 29.95 in 10.0 mi West 9.2 mph - 0.01 in   Overcast
8:15 AM 52.0 °F 48.2 °F 87% 29.96 in 10.0 mi West 11.5 mph 18.4 mph N/A   Overcast
8:35 AM 52.0 °F 47.5 °F 85% 29.97 in 10.0 mi WNW 12.7 mph 17.3 mph N/A   Overcast
9:15 AM 52.9 °F 47.3 °F 81% 29.98 in 10.0 mi WNW 10.4 mph 18.4 mph N/A   Overcast
10:55 AM 52.2 °F 45.9 °F 79% 30.02 in 10.0 mi WNW 16.1 mph - N/A   Overcast
11:35 AM 51.6 °F 44.6 °F 77% 30.04 in 10.0 mi West 13.8 mph - N/A   Overcast
12:15 PM 52.3 °F 44.8 °F 75% 30.06 in 10.0 mi West 13.8 mph 17.3 mph N/A   Overcast
12:35 PM 53.4 °F 44.6 °F 72% 30.06 in 10.0 mi West 12.7 mph 16.1 mph N/A   Overcast
12:55 PM 52.9 °F 44.1 °F 72% 30.05 in 10.0 mi West 11.5 mph 20.7 mph N/A   Overcast
1:15 PM 52.9 °F 45.1 °F 75% 30.05 in 10.0 mi West 10.4 mph - N/A   Overcast
1:35 PM 53.2 °F 44.8 °F 73% 30.05 in 10.0 mi WNW 9.2 mph 17.3 mph N/A   Overcast
1:55 PM 54.5 °F 44.4 °F 69% 30.06 in 10.0 mi WNW 13.8 mph 20.7 mph N/A   Overcast
2:15 PM 53.6 °F 44.6 °F 72% 30.07 in 10.0 mi West 15.0 mph 20.7 mph N/A   Overcast
2:35 PM 54.3 °F 44.1 °F 68% 30.07 in 10.0 mi West 15.0 mph 23.0 mph N/A   Overcast
2:55 PM 54.5 °F 44.6 °F 69% 30.08 in 10.0 mi WNW 17.3 mph 23.0 mph N/A   Overcast
3:15 PM 54.3 °F 44.2 °F 69% 30.07 in 10.0 mi WNW 16.1 mph 21.9 mph N/A   Overcast
3:35 PM 55.4 °F 44.1 °F 66% 30.08 in 10.0 mi WNW 16.1 mph 21.9 mph N/A   Overcast
3:55 PM 54.9 °F 44.2 °F 67% 30.08 in 10.0 mi West 11.5 mph 20.7 mph N/A   Overcast
4:15 PM 55.0 °F 43.7 °F 66% 30.08 in 10.0 mi WNW 15.0 mph 20.7 mph N/A   Overcast
4:35 PM 55.2 °F 43.2 °F 64% 30.09 in 10.0 mi WNW 16.1 mph 23.0 mph N/A   Overcast
4:55 PM 54.7 °F 43.2 °F 65% 30.10 in 10.0 mi WNW 13.8 mph 21.9 mph N/A   Overcast
5:15 PM 54.5 °F 42.8 °F 65% 30.10 in 10.0 mi WNW 10.4 mph 21.9 mph N/A   Overcast
5:35 PM 54.5 °F 42.4 °F 64% 30.10 in 10.0 mi WNW 13.8 mph 23.0 mph N/A   Overcast
5:55 PM 54.3 °F 42.1 °F 63% 30.10 in 10.0 mi WNW 15.0 mph 19.6 mph N/A   Overcast
6:15 PM 54.3 °F 42.1 °F 63% 30.11 in 10.0 mi NW 10.4 mph - N/A   Overcast
6:35 PM 54.5 °F 41.4 °F 61% 30.11 in 10.0 mi WNW 10.4 mph 18.4 mph N/A   Overcast
6:55 PM 54.5 °F 41.4 °F 61% 30.12 in 10.0 mi WNW 12.7 mph 19.6 mph N/A   Overcast
7:15 PM 54.5 °F 41.0 °F 60% 30.13 in 10.0 mi WNW 11.5 mph 17.3 mph N/A   Overcast
7:35 PM 54.5 °F 41.0 °F 60% 30.13 in 10.0 mi NW 11.5 mph 18.4 mph N/A   Overcast
7:55 PM 54.1 °F 41.0 °F 61% 30.13 in 10.0 mi WNW 10.4 mph 18.4 mph N/A   Overcast
8:15 PM 54.1 °F 42.1 °F 64% 30.14 in 10.0 mi WNW 9.2 mph 16.1 mph N/A   Overcast
8:35 PM 53.8 °F 41.4 °F 63% 30.15 in 10.0 mi WNW 12.7 mph 16.1 mph N/A   Overcast
8:55 PM 53.6 °F 41.2 °F 63% 30.16 in 10.0 mi WNW 12.7 mph 18.4 mph N/A   Overcast
9:15 PM 53.2 °F 41.4 °F 64% 30.17 in 10.0 mi WNW 8.1 mph - N/A   Overcast
9:35 PM 52.7 °F 40.8 °F 64% 30.17 in 10.0 mi West 8.1 mph - N/A   Mostly Cloudy
9:55 PM 52.2 °F 40.5 °F 64% 30.18 in 10.0 mi WNW 9.2 mph - N/A   Mostly Cloudy
10:15 PM 51.6 °F 40.6 °F 66% 30.18 in 10.0 mi WNW 11.5 mph 16.1 mph N/A   Scattered Clouds
10:35 PM 51.3 °F 41.9 °F 70% 30.18 in 10.0 mi WNW 6.9 mph - N/A   Clear
11:15 PM 50.5 °F 41.5 °F 71% 30.18 in 10.0 mi NW 8.1 mph - N/A   Clear
11:35 PM 50.2 °F 41.9 °F 73% 30.19 in 10.0 mi WNW 9.2 mph - N/A   Clear
11:55 PM 50.2 °F 41.7 °F 73% 30.20 in 10.0 mi WNW 6.9 mph - N/A   Clear